Location: Kerb�bon
(47.7970°N, 3.3487°W)
Time: 14:19:31
(UTC+00:00)

Daily predictions for brighter satellites

Satellite Brightness Start Highest point End
(mag) Time Altitude Azimuth Time Altitude Azimuth Time Altitude Azimuth
Cosmos 1892 Rocket 3.6 19:03:49 10° N 19:08:19 72° E 19:12:47 10° SSE
NOSS 2-1 (C) 3.9 19:05:36 10° WSW 19:08:56 53° NW 19:12:37 10° NE
STARLINK-1078 3.6 19:05:32 10° WNW 19:09:36 87° SSW 19:13:39 10° ESE
STARLINK-1192 3.8 19:05:45 10° SW 19:09:42 50° SE 19:13:40 10° ENE
Cosmos 1805 3.2 19:06:06 10° S 19:10:00 73° E 19:13:54 10° NNE
BREEZE-M DEB (TANK) 4.3 18:55:49 10° WNW 19:11:14 57° SW 19:14:59 10° SE
Cosmos 2278 Rocket 3.3 19:06:22 10° NW 19:11:49 49° WSW 19:17:16 10° S
STARLINK-1121 4.3 19:08:10 10° WNW 19:12:12 47° NNE 19:16:12 10° E
Meteor 2-5 Rocket 3.8 19:06:57 10° NNW 19:12:40 89° E 19:18:14 10° S
NOSS 2-1 (D) 4.1 19:09:51 10° WSW 19:13:09 48° NW 19:16:49 10° NNE
STARLINK-1108 3.6 19:10:24 10° WNW 19:14:28 82° SSW 19:18:31 10° ESE
STARLINK-1244 3.8 19:10:37 10° SW 19:14:36 54° SE 19:18:36 10° ENE
ARGOS 3.5 19:11:21 10° SE 19:16:29 47° ENE 19:21:38 10° N
STARLINK-1106 4.2 19:13:08 10° WNW 19:17:11 48° NNE 19:21:12 10° E
STARLINK-1071 3.7 19:15:03 10° WNW 19:19:07 77° SSW 19:23:11 10° SE
Cosmos 1048 Rocket 4.3 19:14:03 10° SSW 19:19:10 74° WNW 19:24:24 10° NNE
STARLINK-1138 3.7 19:15:11 10° SW 19:19:11 58° SE 19:23:13 10° ENE
STARLINK-1234 2.9 19:17:12 10° WSW 19:20:10 72° NNW 19:23:08 10° ENE
Okean 1-7 Rocket 3.5 19:15:56 10° N 19:20:22 81° E 19:24:45 10° SSE
Cosmos 494 Rocket 3.9 19:16:51 10° SSW 19:21:58 73° ESE 19:27:10 10° NNE
STARLINK-1112 4.2 19:18:09 10° WNW 19:22:12 50° NNE 19:26:15 10° E
STARLINK-1110 3.7 19:19:32 10° WNW 19:23:35 73° SSW 19:27:37 10° SE
USA 186 2.2 19:20:18 10° SSE 19:23:36 45° ENE 19:26:51 10° N
Meteor 1-24 Rocket 3.6 19:18:20 10° N 19:23:55 82° ENE 19:29:17 10° SSE
STARLINK-1143 3.6 19:20:03 10° SW 19:24:05 62° SSE 19:28:08 10° ENE
STARLINK-1124 3.8 19:20:54 10° WNW 19:25:02 72° SSW 19:29:10 10° SE
STARLINK-1128 4.1 19:23:08 10° WNW 19:27:12 51° NNE 19:31:01 11° E
CZ-2C R/B 3.0 19:23:53 10° SSE 19:28:50 59° ENE 19:33:36 10° N
Cosmos 1331 Rocket 4.1 19:24:10 10° NNW 19:29:21 79° WSW 19:34:29 10° SSE
Cosmos 1544 Rocket 3.7 19:25:07 10° S 19:29:24 55° E 19:33:45 10° NNE
Cosmos 1470 3.4 19:27:58 10° SSE 19:31:28 33° E 19:35:01 10° NNE
STARLINK-1113 4.1 19:28:07 10° WNW 19:32:12 53° NNE 19:35:47 13° E
STARLINK-1241 3.5 19:28:22 10° SW 19:32:24 70° SSE 19:36:26 10° ENE
USA 81 4.2 19:27:11 10° N 19:32:29 80° W 19:37:44 10° S
STARLINK-1122 3.9 19:28:58 10° WNW 19:33:01 64° SSW 19:36:48 11° SE
Cosmos 883 Rocket 4.5 19:28:41 10° S 19:34:47 65° E 19:41:00 10° NNE
CZ-4 R/B 4.2 19:32:13 10° SW 19:35:08 20° W 19:38:03 10° NW
SPOT 3 Rocket 4.0 19:30:46 10° SE 19:35:40 42° ENE 19:40:34 10° N
STARLINK-1119 4.0 19:33:06 10° WNW 19:37:11 56° NNE 19:40:34 14° E
STARLINK-1239 3.5 19:33:16 10° SW 19:37:18 75° SSE 19:41:22 10° ENE
MOS 1 4.3 19:31:54 10° SSE 19:37:31 74° ENE 19:43:11 10° NNW
STARLINK-1126 4.0 19:33:58 10° WNW 19:37:58 59° SW 19:41:36 12° SE
Cosmos 1745 Rocket 4.5 19:31:52 10° NNW 19:38:08 68° W 19:44:19 10° S
Cosmos 2369 Rocket 3.0 19:33:50 10° NNW 19:39:01 34° NE 19:43:14 14° ESE
SJ-6B 3.0 19:37:41 10° SSE 19:41:42 61° ENE 19:45:47 10° N
STARLINK-1240 3.5 19:37:58 10° WSW 19:42:01 80° SSE 19:46:05 10° ENE
STARLINK-1114 3.9 19:38:07 10° WNW 19:42:13 58° NNE 19:45:24 16° E
Cosmos 1733 3.4 19:38:34 10° SSW 19:42:20 73° W 19:46:07 10° N
STARLINK-1082 4.0 19:38:28 10° WNW 19:42:28 55° SW 19:45:55 13° SE
Cosmos 1726 3.8 19:42:57 16° E 19:43:24 16° E 19:45:43 10° NE
Aureole 2 Rocket 3.8 19:41:33 10° N 19:44:26 23° ENE 19:45:57 17° E
Ariane Rocket 3.2 19:39:41 10° S 19:44:46 75° WSW 19:49:52 10° NNW
Cosmos 1758 3.6 19:41:30 10° SSE 19:45:25 45° E 19:49:21 10° NNE
STARLINK-1216 3.5 19:42:42 10° WSW 19:46:46 85° SSE 19:50:50 10° ENE
STARLINK-1130 (DARKSAT) 3.9 19:43:05 10° WNW 19:47:12 61° NNE 19:50:10 18° E
STARLINK-1100 4.2 19:43:23 10° WNW 19:47:21 52° SW 19:50:38 14° SE
ATLAS CENTAUR R/B 4.5 19:48:18 10° NNW 19:48:48 10° NNW 19:49:17 10° NNW
ARGOS Delta rocket 4.4 19:44:20 10° S 19:49:25 71° W 19:54:49 10° NNW
CZ-2C R/B 4.1 19:44:58 10° NNE 19:49:30 42° E 19:53:58 10° S
STARLINK-1209 3.7 19:47:19 10° W 19:50:10 45° NNW 19:52:50 11° NE
STARLINK-1237 3.5 19:47:28 10° WSW 19:51:32 90° SSE 19:55:37 10° ENE
Meteor 1-22 Rocket 4.3 19:46:49 10° SSW 19:52:05 73° WNW 19:57:24 10° N
STARLINK-1083 4.3 19:48:10 10° WNW 19:52:06 48° SW 19:55:12 15° SE
STARLINK-1084 3.8 19:48:03 10° WNW 19:52:11 64° NNE 19:54:56 20° E
STARLINK-1228 3.7 19:49:33 10° W 19:52:19 43° NNW 19:54:50 12° NE
STARLINK-1202 3.6 19:52:12 10° WSW 19:56:17 86° NNW 20:00:11 11° ENE
STARLINK-1125 4.4 19:52:42 10° WNW 19:56:36 45° SW 19:59:33 16° SSE
SL-14 R/B 3.7 19:52:58 10° NNW 19:57:00 66° W 20:00:59 10° S
STARLINK-1098 3.7 19:53:02 10° WNW 19:57:11 67° NNE 19:59:43 22° E
Cosmos 1943 Rocket 2.3 19:55:11 10° NNW 20:00:40 58° ENE 20:04:35 19° SE
ERBS 4.4 19:57:52 10° WNW 20:00:43 24° NNW 20:03:34 10° NE
STARLINK-1109 4.5 19:57:32 10° WNW 20:01:24 42° SW 20:04:12 17° SSE
Meteor 1-21 Rocket 4.3 19:56:03 10° N 20:01:33 55° ENE 20:06:08 15° SSE
STARLINK-1123 3.7 19:58:01 10° WNW 20:02:10 70° NNE 20:04:30 25° ESE
Cosmos 1943 4.2 20:01:04 18° SE 20:03:22 23° E 20:07:40 10° NE
STARLINK-1246 3.7 19:59:25 10° WSW 20:03:30 79° NNW 20:07:11 13° ENE
STARLINK-67 4.1 20:01:17 10° WNW 20:03:38 30° NNW 20:05:16 16° NE
SL-8 R/B 3.7 19:59:43 10° W 20:04:31 84° N 20:07:34 22° E
STARLINK-1201 3.8 20:03:02 10° W 20:06:13 50° NNW 20:08:41 16° NE
STARLINK-1097 3.6 20:02:59 10° WNW 20:07:08 74° NNE 20:09:16 27° ESE
Cosmos 1626 3.1 20:05:01 10° NNW 20:08:35 47° W 20:12:08 10° SSW
Resurs 1-3 3.6 20:05:32 18° SSE 20:08:43 61° ENE 20:13:04 10° N
ATLAS 2AS CENTAUR R/B 3.8 20:02:18 10° NW 20:09:27 37° NNE 20:14:22 18° E
STARLINK-1224 3.7 20:06:33 10° WSW 20:10:37 73° NNW 20:13:58 15° ENE
STARLINK-1203 3.8 20:07:57 10° WSW 20:11:55 68° NNW 20:15:07 15° ENE
STARLINK-1099 3.6 20:07:58 10° WNW 20:12:08 78° NNE 20:14:04 31° ESE
Cosmos 2315 Rocket 4.1 20:07:15 10° S 20:13:33 83° W 20:19:58 10° N
STARLINK-1225 3.8 20:11:09 10° WSW 20:15:12 70° NNW 20:18:23 16° ENE
H-2A R/B 2.9 20:10:15 10° S 20:15:25 50° W 20:20:28 10° NNW
USA 234 3.2 20:10:36 10° ENE 20:17:07 65° SE 20:23:36 10° SW
STARLINK-1104 3.6 20:12:57 10° WNW 20:17:07 82° NNE 20:18:51 34° ESE
Aureole 3 3.6 20:13:15 10° S 20:17:16 69° E 20:22:26 10° NNE
SL-08 RB Rocket 3.9 20:13:00 10° S 20:17:31 72° WSW 20:22:06 10° NNW
Meteor 2-15 Rocket 4.3 20:12:32 10° S 20:18:36 80° E 20:24:42 10° NNE
Resurs 01 Rocket 1.7 20:16:28 27° SE 20:18:38 54° ENE 20:22:57 10° N
DMSP B5D2-2 4.1 20:13:56 10° NNE 20:19:05 58° E 20:24:13 10° S
STARLINK-1233 4.0 20:16:16 10° W 20:19:16 41° NNW 20:21:02 21° NE
STARLINK-1212 4.0 20:16:44 10° W 20:19:43 41° NNW 20:21:27 21° NE
STARLINK-1230 3.9 20:15:55 10° WSW 20:19:59 66° NNW 20:22:57 18° ENE
STARLINK-1105 4.0 20:17:10 10° W 20:20:10 41° NNW 20:21:54 21° NE
SL-16 R/B 2.5 20:14:48 10° SW 20:20:26 71° WNW 20:26:07 10° NNE
STARLINK-1206 4.0 20:17:41 10° W 20:20:39 41° NNW 20:22:19 21° NE
STARLINK-1247 4.0 20:18:06 10° W 20:21:06 40° NNW 20:22:44 21° NE
STARLINK-1227 4.0 20:18:32 10° W 20:21:32 41° NNW 20:23:11 22° NE
Abrixas rocket 3.2 20:18:49 10° SW 20:20:46 28° S 20:20:46 28° S
STARLINK-1218 4.0 20:19:02 10° W 20:22:00 40° NNW 20:23:36 22° NE
STARLINK-1144 3.5 20:17:56 10° WNW 20:22:06 87° NNE 20:23:38 38° ESE
STARLINK-1226 4.0 20:19:28 10° W 20:22:27 40° NNW 20:24:03 22° NE
Cosmos 2228 3.8 20:22:39 30° E 20:22:39 30° E 20:26:23 10° NNE
STARLINK-1254 4.1 20:19:54 10° W 20:22:54 40° NNW 20:24:30 22° NE
STARLINK-1215 4.1 20:20:23 10° W 20:23:22 40° NNW 20:24:54 22° NE
STARLINK-1231 4.1 20:20:50 10° W 20:23:48 39° NNW 20:25:19 23° NE
STARLINK-1232 4.1 20:21:45 10° W 20:24:42 39° NNW 20:26:12 23° NE
STARLINK-1243 3.9 20:20:46 10° WSW 20:24:49 63° NNW 20:27:35 19° ENE
STARLINK-1217 4.1 20:22:12 10° W 20:25:10 39° NNW 20:26:38 23° NE
STARLINK-1208 4.1 20:22:37 10° W 20:25:36 39° NNW 20:27:05 23° NE
STARLINK-1229 4.1 20:23:06 10° W 20:26:04 39° NNW 20:27:30 23° NE
Cosmos 1953 2.1 20:23:07 14° S 20:26:24 70° E 20:30:22 10° NNE
STARLINK-1271 4.1 20:23:33 10° W 20:26:30 39° NNW 20:27:55 24° NE
STARLINK-1270 4.1 20:24:01 10° W 20:26:59 38° NNW 20:28:23 24° NE
STARLINK-1103 3.5 20:22:54 10° WNW 20:27:04 88° SSW 20:28:25 42° ESE
STARLINK-1154 4.1 20:24:29 10° W 20:27:26 38° NNW 20:28:48 24° NE
STARLINK-1197 4.1 20:25:23 10° W 20:28:20 38° NNW 20:29:40 25° NE
STARLINK-1189 4.1 20:25:50 10° W 20:28:47 38° NNW 20:30:07 25° NE
STARLINK-1236 4.0 20:25:35 10° WSW 20:29:37 60° NNW 20:32:12 21° NE
STARLINK-1187 4.2 20:26:43 10° W 20:29:40 36° NNW 20:30:59 24° NE
STARLINK-1198 4.2 20:26:44 10° W 20:29:41 38° NNW 20:30:58 25° NE
STARLINK-1188 4.2 20:26:45 10° W 20:29:42 38° NNW 20:30:59 25° NE
STARLINK-1235 4.3 20:27:28 10° W 20:30:24 35° NNW 20:31:43 24° NE
Cosmos 1992 Rocket 3.9 20:25:18 10° NNW 20:30:33 77° ENE 20:33:07 31° SSE
STARLINK-1199 4.2 20:28:41 10° W 20:31:40 37° NNW 20:32:53 26° NE
STARLINK-1101 3.5 20:27:53 10° WNW 20:32:03 83° SSW 20:33:11 47° SE
STARLINK-1191 4.2 20:29:09 10° W 20:32:07 37° NNW 20:33:20 26° NE
STARLINK-1210 4.2 20:29:36 10° W 20:32:34 37° NNW 20:33:46 26° NE
STARLINK-1221 4.2 20:30:03 10° W 20:33:01 37° NNW 20:34:12 26° NNE
Nadezhda 1 Rocket 4.3 20:29:47 23° SSE 20:33:27 46° E 20:39:30 10° NNE
STARLINK-1219 4.2 20:30:31 10° W 20:33:28 37° NNW 20:34:38 26° NNE
STARLINK-1222 4.2 20:30:58 10° W 20:33:56 37° NNW 20:35:04 27° NNE
STARLINK-1211 4.2 20:31:25 10° W 20:34:23 37° NNW 20:35:30 27° NNE
STARLINK-1214 4.2 20:31:52 10° W 20:34:49 37° NNW 20:35:56 27° NNE
STARLINK-1245 4.2 20:32:21 10° W 20:35:18 36° NNW 20:36:20 27° NNE
ISS -3.9 20:32:01 10° WNW 20:35:23 83° NNE 20:35:39 73° E
STARLINK-1238 4.2 20:32:44 10° W 20:35:42 36° NNW 20:36:46 27° NNE
STARLINK-1205 4.2 20:33:41 10° W 20:36:37 36° NNW 20:37:37 28° NNE
SL-24 R/B 4.2 20:32:10 10° N 20:36:49 75° WNW 20:40:52 10° SSW
STARLINK-1102 3.6 20:32:51 10° WNW 20:37:01 78° SSW 20:37:58 51° SE
STARLINK-1204 4.2 20:34:10 10° W 20:37:05 36° NNW 20:38:04 28° NNE
STARLINK-1269 4.2 20:35:32 10° W 20:39:33 55° NNW 20:41:42 25° NE
Cosmos 2058 Rocket 4.5 20:42:37 24° ENE 20:42:37 24° ENE 20:45:09 10° NNE
STARLINK-1111 3.6 20:37:51 10° WNW 20:42:00 74° SSW 20:42:45 56° SSE
MetOp-B 4.2 20:40:10 37° SE 20:42:08 60° ENE 20:47:25 10° N
Cosmos 2084 Rocket 3.6 20:37:43 10° NW 20:42:11 73° SW 20:43:31 44° SSE
Cosmos 1603 3.7 20:36:46 10° S 20:42:15 55° ESE 20:47:44 10° NE
Cosmos 2251 Rocket 3.4 20:37:53 10° SSW 20:43:13 75° ESE 20:48:37 10° NNE
Cosmos 1703 3.4 20:39:57 10° N 20:43:49 53° ENE 20:43:49 53° ENE
Meteor 1-16 Rocket 4.0 20:40:19 21° S 20:43:54 65° E 20:49:19 10° NNE
SPOT 5 4.2 20:44:26 21° NE 20:44:26 21° NE 20:47:23 10° NNE
STARLINK-1200 4.2 20:40:23 10° W 20:44:23 53° NNW 20:46:20 27° NE
STARLINK-1073 3.6 20:42:51 10° WNW 20:46:59 69° SSW 20:47:33 59° SSE
Cosmos 2074 Rocket 4.0 20:42:23 10° N 20:48:42 85° W 20:53:00 22° S
IGS 5A 4.2 20:49:02 36° ENE 20:49:02 36° ENE 20:52:33 10° N
ERS-1 Rocket 3.8 20:48:38 31° ENE 20:48:58 32° ENE 20:53:23 10° N
STARLINK-1192 4.3 20:45:10 10° W 20:49:10 51° NNW 20:50:56 29° NE
CZ-2C R/B 2.4 20:44:46 10° NNE 20:49:59 88° ESE 20:55:10 10° SSW
Landsat 7 4.2 20:49:40 42° E 20:50:03 43° ENE 20:54:34 10° N
STARLINK-1121 3.6 20:47:49 10° WNW 20:51:56 64° SSW 20:52:19 60° S
STARLINK-1244 4.3 20:50:08 10° W 20:54:07 49° NNW 20:55:40 31° NE
Cosmos 292 Rocket 4.2 20:50:26 10° NNW 20:55:10 60° WSW 20:57:04 34° S
STARLINK-1234 4.5 20:53:06 10° WNW 20:55:44 29° N 20:55:44 29° N
STARLINK-1106 3.7 20:52:47 10° WNW 20:56:52 59° SW 20:57:04 59° SSW
STARLINK-1138 4.4 20:54:42 10° W 20:58:41 48° NNW 21:00:03 34° NE
Cosmos 1656 Rocket 3.7 20:55:13 10° NNW 21:00:53 64° ENE 21:02:03 51° ESE
STARLINK-1112 3.9 20:57:48 10° WNW 21:01:52 55° SW 21:01:53 55° SSW
MOS 1 Rocket 3.8 20:56:57 10° N 21:02:09 71° WNW 21:07:31 10° SSW
Cosmos 1610 Rocket 4.4 20:56:46 10° N 21:03:02 82° E 21:05:25 40° SSE
Meteor 1-11 4.2 20:57:21 10° N 21:03:09 69° ENE 21:04:29 52° SE
STARLINK-1143 4.5 20:59:39 10° W 21:03:37 47° NNW 21:04:46 36° NNE
Cosmos 1437 4.0 21:01:23 10° NNW 21:03:36 39° NW 21:03:36 39° NW
STARLINK-1128 4.1 21:02:48 10° WNW 21:06:40 51° SW 21:06:40 51° SW
Cosmos 1726 Rocket 3.5 21:10:43 78° NE 21:10:43 78° NE 21:14:57 10° N
STARLINK-1113 4.3 21:07:47 10° WNW 21:11:27 46° SW 21:11:27 46° SW
COSMOS 2455 3.7 21:08:28 10° NNW 21:13:58 35° NE 21:15:09 32° ENE
Cosmos 1825 Rocket 4.2 21:09:42 10° NNW 21:14:01 53° W 21:15:02 42° SW
STARLINK-1119 4.5 21:12:47 10° WNW 21:16:13 41° WSW 21:16:13 41° WSW
Aureole 2 Rocket 4.1 21:15:10 10° NW 21:18:09 28° W 21:18:09 28° W
Cosmos 1726 3.4 21:17:22 34° WSW 21:18:16 40° WNW 21:21:51 10° N
Cosmos 1461 4.4 21:17:12 10° NNW 21:20:56 30° NE 21:20:56 30° NE
Cosmos 2341 Rocket 4.0 21:15:31 10° N 21:21:51 64° ENE 21:22:43 58° ESE
Cosmos 1908 4.3 21:24:02 41° N 21:24:02 41° N 21:26:42 10° N
Cosmos 2369 Rocket 2.9 21:17:47 10° NW 21:23:13 47° WSW 21:25:03 35° SSW
NOSS 3-4 (A) 3.8 21:21:32 10° NW 21:28:26 69° NE 21:30:09 53° ESE
NOSS 3-4 (C) 3.9 21:21:38 10° NW 21:28:31 69° NE 21:30:14 53° ESE
Cosmos 1953 Rocket 4.1 21:26:01 10° NNW 21:30:22 53° W 21:30:33 53° WSW
Terra 2.8 21:32:46 38° NE 21:32:46 38° NE 21:36:13 10° N
BREEZE M DEB (TANK) 4.4 21:26:57 10° SW 21:32:34 38° SW 21:32:34 38° SW
Spot 2 Rocket 3.9 21:35:53 51° SW 21:36:35 56° W 21:41:38 10° NNW
NOSS 3-3 (A) 4.0 21:32:00 10° SW 21:37:55 75° NW 21:44:40 10° NE
NOSS 3-3 (C) 4.0 21:32:07 10° SW 21:38:01 76° NW 21:44:46 10° NE
SPOT 1/Viking Rocket 3.5 21:41:28 77° W 21:41:28 77° W 21:46:42 10° NNW
Cosmos 1943 Rocket 3.9 21:39:37 10° NW 21:44:00 24° WSW 21:46:08 19° SW
Cosmos 1943 3.5 21:42:19 16° SW 21:46:54 65° WNW 21:52:35 10° NNE
Cosmos 2218 Rocket 4.0 21:42:47 10° N 21:48:36 62° ENE 21:48:36 62° ENE
Resurs 01 Rocket 3.9 21:54:02 15° WSW 21:55:28 18° W 21:58:26 10° NW
APEX 4.3 21:49:25 10° NNW 21:56:22 87° WSW 21:56:22 87° WSW
Cosmos 2181 Rocket 4.0 22:00:17 72° NE 22:00:17 72° NE 22:05:59 10° N
USA 234 3.8 21:53:43 10° NE 22:00:05 56° NNW 22:06:26 10° W
ATLAS 2AS CENTAUR R/B 2.7 21:53:33 10° NW 22:01:12 80° SW 22:01:48 75° S
Cosmos 407 Rocket 4.5 22:06:47 40° NNE 22:06:47 40° NNE 22:10:03 10° NNE
Cosmos 1697 Rocket 4.5 22:05:57 10° N 22:10:08 21° NE 22:10:12 21° NE
Mayak 1.5 22:15:13 10° NNE 22:15:32 12° NNE 22:15:32 12° NNE
SL-8 Rocket 4.2 22:15:37 10° NNW 22:21:40 66° W 22:21:40 66° W
SPOT 5 4.4 22:23:39 30° NW 22:23:39 30° NW 22:26:09 10° NNW
ERS-1 Rocket 4.3 22:28:37 35° WNW 22:28:37 35° WNW 22:32:22 10° NNW
Cosmos 2366 rocket 4.2 22:23:36 10° NNW 22:28:59 64° NW 22:28:59 64° NW
Cosmos 1980 Rocket 4.2 22:31:36 10° N 22:35:28 19° NE 22:35:28 19° NE
CZ-4C R/B 4.2 22:30:06 10° NW 22:35:47 29° NNE 22:38:44 22° ENE
COSMOS 2455 3.9 22:54:19 10° NW 22:58:18 40° WNW 22:58:18 40° WNW
Terra 4.1 23:11:38 19° WNW 23:11:38 19° WNW 23:13:32 10° NW
USA 234 4.3 23:36:27 10° ENE 23:42:26 40° N 23:48:25 10° WNW
Mayak 1.9 23:51:40 10° NNW 23:52:06 12° NNW 23:52:06 12° NNW
